Flag Weather past 2 weeks in Fort Smith, Northwest Territories, Canada

Now
-15 °F

Passing clouds.


Feels Like: -29 °F
Forecast: -21 / -10 °F
Wind: 6 mph from Southwest

Location: Fort Smith

Current Time: Nov 28, 2014 at 6:39:11 PM

Latest Report: Nov 28, 2014 at 6:00 PM


Visibility: 15 mi

Pressure: 30.14 "Hg

Humidity: 76%

Dew point: -20 °F

Location of Fort SmithLocation

Historic Weather in Fort Smith — Graph

°F

Fort Smith temperature yesterday

Maximum temperature yesterday: -6 °F (at 4:00 AM)
Minimum temperature yesterday: -13 °F (at 10:00 PM)
Average temperature yesterday: -9 °F

Past Weeks' High & Low Weather Summary

 TemperatureHumidityPressure
High21 °F (Nov 15, 6:00 PM)100% (Nov 16, 9:00 PM)30.56 "Hg (Nov 16, 9:00 PM)
Low-26 °F (Nov 25, 6:00 AM)68% (Nov 25, 7:00 AM)29.53 "Hg (Nov 20, 10:00 PM)
Average3 °F83%30.18 "Hg
* Reported Nov 13 5:00 PM — Nov 28 5:00 PM, Fort Smith, Weather by CustomWeather, © 2014

Note: Actual official high and low records may vary slightly from our data, if they occured in-between our weather recording intervals... More about our weather records

Advertising

Fort Smith weather history for previous 24 hours

 ConditionsComfort  
Time TempWeatherWind HumidityBarometerVisibility
5:00 PM
Nov 28
-15 °FPassing clouds.5 mph76%30.17 "Hg15 mi
4:00 PM-13 °FPartly cloudy.5 mph76%30.19 "Hg15 mi
3:00 PM-11 °FPassing clouds.5 mph84%30.21 "Hg15 mi
2:00 PM-9 °FPassing clouds.5 mph77%30.23 "Hg15 mi
1:00 PM-11 °FPassing clouds.6 mph76%30.25 "Hg15 mi
12:00 PM-11 °FPassing clouds.8 mph76%30.28 "Hg15 mi
11:50 AM-11 °FPassing clouds.8 mph76%30.28 "Hg15 mi
11:00 AM-11 °FLight snow. Partly sunny.5 mph76%30.30 "Hg12 mi
10:00 AM-11 °FLight snow. Partly sunny.5 mph76%30.31 "Hg10 mi
9:00 AM-11 °FLight snow. Overcast.6 mph76%30.32 "Hg12 mi
8:00 AM-11 °FLight snow. Overcast.3 mph76%30.33 "Hg12 mi
7:00 AM-11 °FLight snow. Overcast.3 mph76%30.35 "Hg12 mi
6:00 AM-11 °FLight snow. Overcast.6 mph76%30.37 "Hg12 mi
5:00 AM-11 °FLight snow. Overcast.6 mph84%30.38 "Hg10 mi
4:00 AM-11 °FLight snow. Passing clouds.5 mph76%30.39 "Hg10 mi
3:00 AM-9 °FLight snow. Overcast.7 mph77%30.41 "Hg12 mi
2:00 AM-9 °FLight snow. Overcast.6 mph77%30.42 "Hg10 mi
1:00 AM-9 °FLight snow. Overcast.7 mph77%30.43 "Hg12 mi
12:00 AM-11 °FLight snow. Overcast.5 mph84%30.45 "Hg12 mi
11:00 PM
Nov 27
-11 °FLight snow. Overcast.5 mph76%30.45 "Hg12 mi
10:00 PM-13 °FLight snow. Overcast.5 mph76%30.46 "Hg12 mi
9:00 PM-11 °FLight snow. Overcast.5 mph76%30.47 "Hg12 mi
8:00 PM-11 °FLight snow. Overcast.7 mph76%30.47 "Hg12 mi
7:00 PM-11 °FLight snow. Overcast.7 mph84%30.48 "Hg12 mi
6:00 PM-9 °FLight snow. Overcast.8 mph77%30.49 "Hg15 mi
Weather by CustomWeather, © 2014

See weather overviewHow to use our weather pages